Погода в Красном Маке

Россия / Республика Крым     44°38′31″N   33°46′59″E
темп.,
°C
ветер,
м/с
пор.,
м/с
влажн.,
%
обл.,
%
осадки,
мм/ч
давл.,
гПа
погр.,
м
19 апреля, пн
пн1900:00+9з1180100 0.1 101646
03:00+9зюз1179100 0.1 101565
06:00+9юз1181100 0.0 101459
09:00+11з2181100 0.0 1014343
12:00+13зсз3376100 0.0 1014717
15:00+14зсз3271100 0.1 1013905
18:00+14ссз3377100 0.0 1012573
21:00+11зсз1293100 0.7 1011153
20 апреля, вт
вт2000:00+11з2395100 0.8 1008135
03:00+10зюз2298100 7.5 1006155
06:00+11ю4109282 1.5 1003573
09:00+9ююз91396100 1.6 1003846
12:00+9з81295100 0.2 1006958
15:00+9з7995100 0.9 1009653
18:00+9з369387 0.3 1011483
21:00+7ююз229624 0.4 101347
21 апреля, ср
ср2100:00+7ю2295100 0.0 101451
03:00+6ююз229727 0.0 101537
06:00+6ююв2294100 0.0 101635
09:00+11ююз3477100 0.0 1017428
12:00+13зюз546596 0.3 1018949
15:00+14зюз566092 0.4 10181023
18:00+12зюз457044 0.0 1019559
21:00+9ююз22836 0.0 102032
22 апреля, чт
чт2200:00+8ю22765 0.0 102016
03:00+7ююв22755 0.0 102021
06:00+6ююв22845 0.0 102119
09:00+12ююз45635 0.0 1022614
12:00+15юз66523 0.0 10221215
15:00+15юз66510 0.0 10221136
18:00+13юз56600 0.0 1022535
21:00+9ююв21760 0.0 102312
23 апреля, пт
пт2300:00+8ююв227649 0.0 102311
03:00+7юв2277100 0.0 102214
06:00+8вюв2270100 0.0 102116
09:00+13ююв1253100 0.0 1021345
12:00+18зюз343633 0.0 10201730
15:00+19юз45327 0.0 10191704
18:00+17зюз234664 0.0 1018259
21:00+12вюв2264100 0.0 101922